Hourly Data Report for October 16, 2017

All times are specified in Local Standard Time (LST). Add 1 hour to adjust for Daylight Saving Time where and when it is observed.

ST. PETERS
PRINCE EDWARD ISLAND

46°27'01.000" N
62°34'33.000" W
29.70 m
8300562
71310
ZSP

Download Data

Hourly Data (October 2017)
Hourly Data Report for October 16, 2017
Temp Definition
°C
Dew Point Temp Definition
°C
Rel Hum Definition
%
Wind Dir Definition
10's deg

Wind Spd Definition
km/h
Visibility Definition
km
Stn Press Definition
kPa
Hmdx Definition


Wind Chill Definition


Weather Definition


TIME
00:00 19.4 16.3 82 20 40   99.49     LegendNANA
01:00 19.5 16.1 81 20 37   99.46     LegendNANA
02:00 19.5 15.9 80 21 39   99.42     LegendNANA
03:00 19.1 15.1 77 22 42   99.40     LegendNANA
04:00 18.2 14.9 81 22 39   99.49     LegendNANA
05:00 18.0 15.0 83 22 39   99.52     LegendNANA
06:00 17.9 15.1 84 22 35   99.54     LegendNANA
07:00 17.7 15.1 85 22 31   99.63     LegendNANA
08:00 17.7 14.9 84 23 27   99.76     LegendNANA
09:00 18.6 15.0 80 24 24   99.84     LegendNANA
10:00 12.8 9.2 79 30 29   100.11     LegendNANA
11:00 11.6 7.9 78 32 25   100.26     LegendNANA
12:00 10.4 6.5 77 31 28   100.40     LegendNANA
13:00 9.4 7.0 85 32 22   100.49     LegendNANA
14:00 8.8 7.0 88 32 19   100.58     LegendNANA
15:00 9.0 4.9 76 32 15   100.70     LegendNANA
16:00 9.1 4.6 74 33 18   100.75     LegendNANA
17:00 9.0 4.1 71 32 17   100.86     LegendNANA
18:00 8.5 3.5 70 35 18   100.96     LegendNANA
19:00 8.5 3.4 70 35 16   101.02     LegendNANA
20:00 8.3 3.9 74 35 16   101.04     LegendNANA
21:00 8.3 3.7 73 35 15   101.08     LegendNANA
22:00 8.3 3.6 72 35 16   101.10     LegendNANA
23:00 8.2 3.5 72 35 11   101.10     LegendNANA

Notes on Data Quality.

Legend

  • E = Estimated
  • M = Missing
  • NA = Not Available
  • ‡ = Partner data that is not subject to review by the National Climate Archives
Date modified: